Вернуться в каталог

STARLINK-6120

АктивенСвязьVLEO
NORAD 56131·PAYLOAD·🇺🇸 United States

Запущен Mar 29, 2023 с Cape Canaveral Space Force Station

Loading…

Ближайшие Пролёты (ближайшие 24 часа)

TLE

СвежийSource: CelesTrak SupGP

Эпоха: Sep 15, 2026, 01:39 UTC

1 56131C 23046AQ  26258.06923611  .00011157  00000+0  40419-3 0  2585
2 56131  42.9996 157.5255 0001174 259.2918  63.3583 15.27565193    19

Отслеживайте STARLINK-6120 в реальном времени с AllMySat

Download on the App Store